CDT,Max TemperatureF,Mean TemperatureF,Min TemperatureF,Max Dew PointF,MeanDew PointF,Min DewpointF,Max Humidity, Mean Humidity, Min Humidity, Max Sea Level PressureIn, Mean Sea Level PressureIn, Min Sea Level PressureIn, Max VisibilityMiles, Mean VisibilityMiles, Min VisibilityMiles, Max Wind SpeedMPH, Mean Wind SpeedMPH, Max Gust SpeedMPH,PrecipitationIn, CloudCover, Events, WindDirDegrees
2013-10-1,79,70,62,65,61,54,94,77,54,30.00,29.96,29.92,10,8,2,17,6,16,0.00,2,,203
2013-10-2,73,66,58,66,60,52,91,78,47,30.11,30.04,29.99,20,11,5,12,5,,0.00,3,,310
2013-10-3,78,68,58,73,64,56,94,88,69,30.01,29.96,29.88,12,6,1,9,4,,0.00,4,Rain-Thunderstorm,166
2013-10-4,81,71,64,68,64,62,94,84,69,30.01,29.96,29.92,10,8,1,10,4,,0.00,4,,195
2013-10-5,82,72,64,70,68,63,95,87,65,29.97,29.89,29.77,10,9,4,14,5,,0.00,4,Rain,174
2013-10-6,69,58,47,67,49,39,92,75,42,29.80,29.77,29.70,20,12,4,15,7,23,0.02,6,Rain,238
2013-10-7,67,56,46,46,42,39,82,68,37,30.11,29.93,29.78,20,13,10,16,7,,0.00,4,,233
2013-10-8,76,62,48,54,47,43,88,67,31,30.21,30.16,30.11,20,14,10,7,4,,0.00,0,,153
2013-10-9,70,57,45,54,46,41,94,75,35,30.27,30.20,30.16,20,12,1,10,3,,0.00,0,,128
2013-10-10,75,58,44,54,47,41,94,79,41,30.19,30.14,30.07,20,11,4,9,2,,0.00,1,,114
2013-10-11,77,64,51,52,47,45,88,64,32,30.11,30.05,29.99,15,11,10,10,5,,0.00,1,,144
2013-10-12,77,64,51,64,51,43,88,68,47,30.19,30.05,29.99,20,11,10,20,7,,0.00,2,,190
2013-10-13,63,55,39,45,42,37,100,76,38,30.41,30.32,30.20,20,13,4,14,4,,0.00,0,,317
2013-10-14,63,52,42,48,44,39,92,73,45,30.40,30.31,30.09,20,12,10,14,3,,0.00,3,,91
2013-10-15,66,60,53,61,50,43,94,75,62,30.16,29.97,29.81,20,10,2,14,8,16,0.00,4,Rain,171
2013-10-16,55,50,46,45,43,41,87,73,66,29.95,29.91,29.88,20,11,10,14,7,25,0.00,5,,244
2013-10-17,55,47,39,48,43,37,94,83,58,29.94,29.90,29.84,15,9,4,17,6,29,0.00,5,Rain,248
2013-10-18,51,44,37,43,39,36,93,77,62,29.97,29.92,29.86,10,10,5,20,4,26,0.00,5,,240
2013-10-19,56,50,44,41,37,28,87,66,38,29.95,29.87,29.80,20,12,10,23,5,30,0.00,6,Rain,227
2013-10-20,66,54,41,43,39,36,87,62,35,29.90,29.83,29.75,20,12,10,14,5,16,0.00,4,Rain,202
2013-10-21,56,45,33,48,35,23,88,64,40,29.99,29.90,29.81,20,12,5,20,7,32,0.02,4,Rain,243
2013-10-22,44,37,30,37,30,23,93,81,43,30.00,29.96,29.91,20,10,4,12,3,,0.00,4,Rain,234
2013-10-23,47,40,32,37,30,21,93,70,34,30.03,29.96,29.89,20,13,4,17,7,29,0.00,4,,269
2013-10-24,46,40,37,30,26,19,75,58,37,30.30,30.14,30.02,20,13,10,17,9,23,0.00,7,,269
2013-10-25,52,40,30,28,26,23,80,58,33,30.41,30.27,30.09,20,14,10,14,7,22,0.00,1,,238
2013-10-26,56,48,33,34,28,25,85,52,27,30.09,30.00,29.87,20,14,10,23,9,29,0.00,3,,240
2013-10-27,56,42,28,32,29,25,93,65,31,30.09,30.05,29.98,20,13,10,12,3,23,0.00,1,,222
2013-10-28,58,44,30,46,36,27,93,76,51,30.36,30.23,30.09,20,11,10,14,4,23,0.00,2,,29
2013-10-29,58,48,39,55,39,34,94,70,44,30.37,30.28,30.15,10,10,10,12,8,,0.00,4,,110
2013-10-30,66,52,39,64,49,37,94,87,71,30.15,30.03,29.80,10,5,0,10,3,,1.21,6,Rain,146
2013-10-31,66,58,50,64,57,44,94,88,79,29.78,29.53,29.22,10,8,1,21,11,34,0.30,8,Rain,216